Abakan, Russia

5:31 AM +07 on November 17, 2019 (GMT +0700)
Abakan

Weather History for UNAA - September, 2019

Change the Weather History Date:

Tuesday, September 17, 2019

  Actual Average (WUND) Record (WUND)
Temperature  
Mean Temperature 52 °F -  
Max Temperature 64 °F - - (-1)
Min Temperature 39 °F - - (-1)
Degree Days  
Heating Degree Days 14    
Growing Degree Days 2 (Base 50)    
Moisture  
Dew Point 47 °F    
Average Humidity 84    
Maximum Humidity 100    
Minimum Humidity 59    
Precipitation  
Precipitation 0.00 in - - ()
Sea Level Pressure  
Sea Level Pressure 30.08 in    
Wind  
Wind Speed 3 mph ()    
Max Wind Speed 7 mph    
Max Gust Speed -    
Visibility 4.4 miles    
Events      
Averages and records for this station are not official NWS values.
T = Trace of Precipitation, MM = Missing Value Source: Averaged Metar Reports

Daily Weather History Graph

Daily Weather History Graph

Search for Another Location

Airport or City:

Astronomy

Sep. 17, 2019 Rise Set
Actual Time 6:30 AM +07 7:07 PM +07
Civil Twilight 5:54 AM +07 7:42 PM +07
Nautical Twilight 5:12 AM +07 8:24 PM +07
Astronomical Twilight 4:27 AM +07 9:09 PM +07
Moon 8:33 PM +07 (9/17) 9:23 AM +07 (9/17)
Length of Visible Light 13h 47m
Length of Day
12h 36m
Waning Gibbous, 92% of the Moon is Illuminated
Sep 17
Waning Gibbous
Sep 22
Last Quarter
Sep 29
New
Oct 5
First Quarter
Oct 14
Full

Hourly Weather History & Observations

Time (+07) Temp. Windchill Dew Point Humidity Pressure Visibility Wind Dir Wind Speed Gust Speed Precip Events Conditions
12:00 AM 44.6 °F 42.3 °F 44.6 °F 100% 30.12 in - WNW 4.5 mph - N/A   Mist
12:30 AM 44.6 °F - 42.8 °F 93% 30.12 in - East 2.2 mph - N/A   Mist
1:00 AM 44.6 °F - 42.8 °F 93% 30.12 in - East 2.2 mph - N/A   Mist
1:30 AM 44.6 °F 42.3 °F 42.8 °F 93% 30.12 in - East 4.5 mph - N/A   Mist
2:00 AM 42.8 °F 40.2 °F 42.8 °F 100% 30.12 in - East 4.5 mph - N/A   Mist
2:30 AM 42.8 °F - 42.8 °F 100% 30.09 in - East 2.2 mph - N/A   Mist
3:00 AM 42.8 °F 40.2 °F 42.8 °F 100% 30.09 in - East 4.5 mph - N/A   Mist
3:30 AM 42.8 °F - 42.8 °F 100% 30.09 in 3.7 mi East 2.2 mph - N/A   Unknown
4:00 AM 44.6 °F - 42.8 °F 93% 30.09 in 3.1 mi East 2.2 mph - N/A   Mist
5:00 AM 41.0 °F - 41.0 °F 100% 30.09 in 3.1 mi East 2.2 mph - N/A   Mist
5:30 AM 39.2 °F - 39.2 °F 100% 30.09 in 3.1 mi East 2.2 mph - N/A   Mist
6:30 AM 41.0 °F - 41.0 °F 100% 30.09 in 4.3 mi Calm Calm - N/A   Partly Cloudy
7:00 AM 39.2 °F - 39.2 °F 100% 30.09 in 6.2 mi Calm Calm - N/A   Partly Cloudy
7:30 AM 41.0 °F - 41.0 °F 100% 30.09 in 6.2 mi Calm Calm - N/A   Partly Cloudy
8:00 AM 44.6 °F - 42.8 °F 93% 30.09 in - Calm Calm - N/A   Clear
8:30 AM 46.4 °F - 44.6 °F 93% 30.09 in 5.6 mi Calm Calm - N/A   Partly Cloudy
9:00 AM 46.4 °F - 46.4 °F 100% 30.09 in 5.6 mi Calm Calm - N/A   Partly Cloudy
10:00 AM 53.6 °F - 48.2 °F 82% 30.09 in - East 2.2 mph - N/A   Clear
10:30 AM 55.4 °F - 46.4 °F 72% 30.09 in - ESE 2.2 mph - N/A   Clear
11:00 AM 55.4 °F - 46.4 °F 72% 30.09 in - SSE 4.5 mph - N/A   Clear
11:30 AM 57.2 °F - 48.2 °F 72% 30.09 in - SE 4.5 mph - N/A   Clear
12:00 PM 59.0 °F - 48.2 °F 67% 30.09 in - Variable 2.2 mph - N/A   Clear
12:30 PM 59.0 °F - 48.2 °F 67% 30.06 in - SSW 4.5 mph - N/A   Clear
1:00 PM 59.0 °F - 50.0 °F 72% 30.06 in - SSW 6.7 mph - N/A   Clear
1:30 PM 59.0 °F - 50.0 °F 72% 30.06 in - SSW 4.5 mph - N/A   Clear
2:00 PM 60.8 °F - 50.0 °F 68% 30.06 in - SSW 6.7 mph - N/A   Clear
2:30 PM 62.6 °F - 50.0 °F 63% 30.06 in - SSW 4.5 mph - N/A   Clear
3:30 PM 62.6 °F - 50.0 °F 63% 30.04 in - South 6.7 mph - N/A   Clear
4:00 PM 64.4 °F - 50.0 °F 59% 30.04 in - SSW 6.7 mph - N/A   Clear
4:30 PM 64.4 °F - 51.8 °F 64% 30.04 in - SW 4.5 mph - N/A   Clear
5:00 PM 62.6 °F - 51.8 °F 68% 30.04 in - SSW 6.7 mph - N/A   Clear
5:30 PM 62.6 °F - 51.8 °F 68% 30.04 in - SSW 6.7 mph - N/A   Clear
6:00 PM 62.6 °F - 50.0 °F 63% 30.04 in - SW 4.5 mph - N/A   Clear
6:30 PM 62.6 °F - 51.8 °F 68% 30.04 in - West 2.2 mph - N/A   Clear
7:00 PM 59.0 °F - 51.8 °F 77% 30.04 in - Calm Calm - N/A   Clear
7:30 PM 59.0 °F - 50.0 °F 72% 30.04 in - ESE 2.2 mph - N/A   Clear
8:00 PM 57.2 °F - 51.8 °F 82% 30.06 in - SSE 4.5 mph - N/A   Clear
8:30 PM 55.4 °F - 51.8 °F 88% 30.06 in 5.6 mi SSE 4.5 mph - N/A   Unknown
9:00 PM 55.4 °F - 51.8 °F 88% 30.06 in 5.6 mi South 2.2 mph - N/A   Unknown
9:30 PM 53.6 °F - 51.8 °F 94% 30.06 in 3.7 mi Variable 2.2 mph - N/A   Unknown
10:00 PM 51.8 °F - 50.0 °F 94% 30.06 in - NNW 4.5 mph - N/A   Mist
10:30 PM 50.0 °F - 48.2 °F 94% 30.06 in 2.8 mi SSW 6.7 mph - N/A   Mist
11:00 PM 48.2 °F - 46.4 °F 93% 30.09 in 2.5 mi Calm Calm - N/A   Mist